Location: Demmingen
(48.6757°N, 10.4375°E)
Time: 22:05:04
(UTC+00:00)

SL-16 R/B - Pass Details

Date: 10 August 2024
Orbit: 842 x 845 km, 71.0° (Epoch: 10 September)

Event Time Altitude Azimuth Distance (km) Brightness Sun altitude
Exits shadow 23:00:44 47° 103° (ESE) 1,105 2.6 -25.9°
Drops below altitude 10° 23:05:57 10° 38° (NE) 2,474 5.2 -26.0°
Sets 23:08:29 0° 32° (NNE) 3,414 6.1 -26.0°
